Regional Weather Roundup
Issued by NWS New Orleans/Baton Rouge, LA

Home | Current Version | Previous Version | Text Only | Print | Product List | Glossary On
Versions: 1 2 3 4 5 6 7 8 9 10 11 12 13 14 15 16 17 18 19 20 21 22 23 24 25 26 27 28 29 30 31 32 33 34 35 36 37 38 39 40 41 42 43 44 45 46 47 48 49 50
676
ASUS44 KLIX 311110
RWRLIX
NEW ORLEANS REGIONAL WEATHER ROUNDUP
NATIONAL WEATHER SERVICE NEW ORLEANS LA
500 AM CST SAT JAN 31 2015

NOTE: "FAIR" INDICATES FEW OR NO CLOUDS BELOW 12,000 FEET WITH NO
      SIGNIFICANT WEATHER AND/OR OBSTRUCTIONS TO VISIBILITY.
      SKY/WX - SKY CONDITION AND SIGNIFICANT WEATHER.
      TMP - AIR TEMPERATURE.     DP    - DEWPOINT TEMPERATURE.
      RH  - RELATIVE HUMIDITY.   PRES  - PRESSURE.
      HI  - HEAT INDEX.          WCI   - WIND CHILL INDEX.

*  THESE STATIONS ARE NOT NWS OR FAA STATIONS AND ARE NOT UNDER
   NWS QUALITY CONTROL.

LAZ038-040-048-061>063-065>067-069-311200-
SOUTHEAST LOUISIANA

CITY           SKY/WX    TMP DP  RH WIND       PRES   REMARKS
N.O. AUDUBON     N/A     47  38  71 MISG        N/A
N.O. INTL ARPT PTCLDY    46  32  58 E8        30.28F
N.O. LAKEFRONT CLEAR     48  35  60 E14       30.29S
N.O. DOWNTOWN* NOT AVBL
SLIDELL        CLEAR     40  29  64 CALM      30.28S
BATON ROUGE    CLEAR     36  30  79 NE7       30.28F WCI  30
BOOTHVILLE     CLEAR     51  43  74 NE8       30.27S
BELLE CHASSE   PTCLDY    43  36  76 NE6       30.28S
BOGALUSA*        N/A     33  30  89 N5        30.31F WCI  29
GALLIANO*      SUNNY     51  43  73 NE3       30.27S
NEW ROADS*       N/A     41  30  65 E10       30.28F
GONZALES*        N/A     42  33  72 CALM      30.27F
HAMMOND*       CLEAR     36  30  80 CALM      30.31S
HOUMA*         CLEAR     42  38  84 NE7       30.27S
PORT FOURCHON* SUNNY     54  45  71 NE10      30.29S

$$

MSZ070-080>082-311200-
SOUTHERN MISSISSIPPI

CITY           SKY/WX    TMP DP  RH WIND       PRES   REMARKS
MCCOMB         CLEAR     38  28  67 VRB3      30.29S
GULFPORT       CLEAR     39  30  70 NE6       30.28F WCI  35
BILOXI         CLEAR     39  31  72 NE9       30.29F WCI  33
PASCAGOULA     CLEAR     31  29  92 CALM      30.31F

$$

COASTAL OBSERVATIONS
LAKE AND NEARSHORE STATIONS

STATION/POSITION TIME  TEMP    WIND        PRES    WAVE
                       AIR SEA DIR/SP/G            HT/PER
                 (UTC) (F)     (DEG/KT/KT) (MB)    (FT/S)
PASCAGOULA       1100   42      50/  8/ 11 1025.5
WAVELAND YACHT   1100   43      60/ 11/ 13 1024.6
GRAND ISLE       1100   54 62   70/ 14/ 16 1024.9
SOUTHWEST PASS   1100   50 46   40/ 11/ 12 1024.5
NEW CANAL        1100   47 54   80/  8/ 13 1025.6
SHELL BEACH      1100   51 55   70/ 14/ 17 1025.1

OFFSHORE STATIONS

STATION/POSITION TIME  TEMP    WIND        PRES    WAVE
                       AIR SEA DIR/SP/G            HT/PER
                 (UTC) (F)     (DEG/KT/KT) (MB)    (FT/S)
64 S DAUPHIN ISL 1041   59 68   60/ 19/ 23 1024.4    4/ 5

$$




USA.gov is the U.S. government's official web portal to all federal, state and local government web resources and services.